Location: Andershausen
(51.8462°N, 9.8595°E)
Time: 06:46:11
(UTC+00:00)

Cosmos 44 Rocket - Pass Details

Date: 18 November 2025
Orbit: 637 x 741 km, 65.1° (Epoch: 11 December)

Event Time Altitude Azimuth Distance (km) Brightness Sun altitude
Rises 16:37:36 0° 195° (SSW) 2,986 7.0 -10.9°
Reaches altitude 10° 16:40:00 10° 187° (S) 2,094 6.1 -11.3°
Maximum altitude 16:44:23 38° 120° (ESE) 1,047 3.9 -11.9°
Enters shadow 16:47:40 17° 60° (ENE) 1,736 4.7 -12.4°
